Lid_Strength_Index
16 16 16 16 16 17 17 18 18 18 18 18 18 18 18 18 18 18 19 18 18 18 18 17 17 17 17 17 17 16 15 16 18 16 15 14 14 14 13 12 11 12 11
16 16 17 17 17 18 18 18 18 18 18 18 18 18 18 18 19 19 19 18 18 18 17 17 18 16 18 17 17 16 16 16 17 17 15 15 14 13 13 13 12 11 12
16 17 17 17 18 18 18 19 18 19 19 19 19 19 19 19 19 18 18 18 18 18 17 17 17 17 16 16 16 17 16 15 15 15 15 13 13 12 13 12 12 12 11
16 17 17 17 18 18 18 18 19 19 19 19 19 19 19 19 18 18 18 18 18 17 17 17 16 16 15 16 15 15 14 15 14 14 14 13 13 12 12 13 13 12 12
16 17 17 17 17 18 18 18 18 19 19 19 19 19 19 19 18 18 17 18 17 17 16 15 14 14 13 13 14 14 14 14 13 13 13 13 13 13 13 12 13 13 12
16 16 16 16 17 17 17 18 19 19 19 19 19 19 20 19 16 15 16 17 16 16 16 15 14 14 14 12 11 10 10 11 12 13 12 12 12 12 11 12 12 13 15
16 16 16 16 17 17 17 18 19 19 20 20 20 20 20 19 15 14 14 16 15 15 15 14 14 13 14 13 12 10 9 8 7 9 11 11 12 11 11 12 11 12 13
16 16 16 16 16 17 17 18 19 19 19 20 20 20 19 19 15 13 13 15 15 14 14 14 14 13 13 12 12 11 10 9 9 9 10 10 10 9 10 12 13 13 13
16 16 16 15 16 17 17 18 18 19 20 20 20 20 20 19 14 12 12 14 14 14 14 13 13 12 10 8 9 11 10 10 8 7 7 7 7 8 9 12 14 15 16
15 15 15 15 15 16 16 18 19 19 18 19 18 19 19 20 14 12 11 14 18 15 14 12 10 11 8 7 9 10 12 12 11 11 12 11 10 10 9 11 13 15 15
15 15 15 15 15 15 16 18 18 19 19 20 19 19 19 18 18 12 11 13 14 16 15 13 11 8 7 6 6 9 11 8 13 14 14 13 13 12 12 11 11 13 15
16 16 16 16 15 16 17 19 19 19 19 20 20 20 19 17 15 13 11 10 10 14 14 12 11 8 7 6 6 7 7 8 15 15 15 15 14 13 12 12 12 12 12
17 16 16 16 17 17 18 20 20 19 19 19 19 19 19 17 16 12 10 10 9 10 11 10 8 7 6 8 8 8 10 15 17 17 15 14 13 13 13 13 12 13 13
16 18 20 19 20 20 19 18 18 19 19 19 19 18 19 18 16 16 15 14 11 10 10 11 10 8 7 9 13 11 12 14 14 15 14 13 13 15 15 14 15 15 16
20 21 20 20 20 21 19 19 18 20 17 20 19 20 21 20 17 14 14 17 17 13 13 16 15 14 16 16 17 16 15 15 16 15 15 15 16 15 15 15 16 16 17
20 20 20 20 21 21 21 22 14 14 13 12 12 17 20 13 12 10 10 8 7 7 9 15 16 16 17 17 18 18 17 17 16 16 16 16 17 17 17 16 16 17 17
19 20 21 20 21 21 21 20 20 18 11 11 11 10 9 12 10 9 8 7 7 7 12 18 17 17 18 18 18 18 18 17 16 17 17 18 18 18 18 18 17 17 17
22 20 20 20 20 21 21 21 22 21 20 21 16 12 12 11 10 10 9 9 12 13 19 18 19 20 21 20 20 21 20 20 19 20 20 20 20 19 19 19 18 18 18
22 23 23 23 23 22 22 23 24 25 24 22 20 17 17 14 13 12 10 18 20 18 18 20 20 22 22 22 22 23 24 23 23 24 24 23 21 20 20 19 18 19 18
24 22 23 24 24 24 24 24 23 21 20 21 21 21 23 24 25 24 22 21 19 20 19 21 23 26 26 26 25 25 26 28 27 27 27 25 22 20 20 20 20 20 18
26 25 24 25 25 23 22 20 20 20 22 23 24 25 16 20 21 22 21 23 22 22 21 23 25 26 26 26 25 26 26 23 23 28 30 27 24 22 21 20 20 20 17
26 27 27 25 23 21 22 22 23 24 26 28 27 24 16 24 28 30 30 26 25 25 23 23 24 26 25 24 24 23 24 23 26 32 29 27 26 24 22 21 22 19 19
24 24 25 26 26 26 27 29 28 28 28 29 29 28 30 30 30 28 26 26 27 27 26 26 24 23 22 21 21 23 23 24 27 31 30 29 27 26 24 22 22 19 20
25 25 27 29 29 28 29 30 30 28 29 30 31 30 28 28 27 26 25 25 26 26 27 24 20 21 20 22 23 25 25 27 33 30 30 28 26 26 25 23 22 20 21
30 29 29 29 30 29 31 31 30 32 32 30 28 30 29 27 26 26 25 25 25 26 26 21 21 22 22 23 23 26 29 24 26 28 32 32 28 27 25 23 21 20 24
30 29 30 31 31 32 32 31 30 29 28 27 27 26 27 25 25 24 24 24 24 22 21 21 21 22 22 23 25 26 27 23 25 26 28 30 28 25 24 21 22 22 23